Location: Bannatyne
(13.0833°N, 59.5333°W)
Time: 17:28:05
(UTC+00:00)

deb Explorer IX - Pass Details

Date: 01 February 2020
Orbit: 549 x 1099 km, 38.8° (Epoch: 25 February)

Event Time Altitude Azimuth Distance (km) Brightness Sun altitude
Rises 03:38:30 0° 327° (NNW) 3,848 - -81.0°
Reaches altitude 10° 03:42:21 10° 346° (NNW) 2,931 - -81.8°
Maximum altitude 03:46:52 17° 25° (NNE) 2,445 - -82.7°
Drops below altitude 10° 03:51:21 10° 64° (ENE) 2,917 - -83.6°
Sets 03:55:09 0° 83° (E) 3,823 - -84.2°
